User: anonymous   Login
Location: Unspecified
(0.0000°N, 0.0000°E)
Time: 07:47:25
(UTC+00:00)
Language:

Intelsat II F-4 - Orbit

View from above orbital plane
View from above orbital plane
View from above satellite
View from above satellite

Ground track
Ground track

The orbit data is extracted from the following two-line orbital elements,

1  2969U 67094A   18112.80225417 +.00000081 +00000-0 +00000-0 0  9993
2  2969 003.1892 295.5756 0011733 239.4727 154.4747 01.00284893085469
Epoch (UTC): 22 April 2018 19:15:14
Eccentricity: 0.0011733
inclination: 3.1892°
perigee height: 35733 km
apogee height: 35832 km
right ascension of ascending node: 295.5756°
argument of perigee: 239.4727°
revolutions per day: 1.00284893
mean anomaly at epoch: 154.4747°
orbit number at epoch: 8546

The dashed part of the orbit path shows where the satellite is in the earth's shadow,  

DLR